Regional Weather Roundup
Issued by NWS Grand Forks, ND

Home | Current Version | Previous Version | Text Only | Print | Product List | Glossary Off
Versions: 1 2 3 4 5 6 7 8 9 10 11 12 13 14 15 16 17 18 19 20 21 22 23 24 25 26 27 28 29 30 31 32 33 34 35 36 37 38 39 40 41 42 43 44 45 46 47 48 49 50

000
ASUS43 KFGF 210031
RWRFGF
PRAIRIE TO PINES  WEATHER ROUNDUP
NATIONAL WEATHER SERVICE EASTERN NORTH DAKOTA/GRAND FORKS ND
700 PM CDT MON OCT 20 2014

 **SATELLITE DATA USED TO AUGMENT SKY COVER AT AUTOMATED STATIONS**
 *****  WEATHER ACROSS EASTERN NORTH DAKOTA  *****

CITY           SKY/WX    TMP DP  RH WIND       PRES   REMARKS
GRAND FORKS    CLEAR     53  41  63 E6        30.03S
6HR MIN TEMP:  53; 6HR MAX TEMP:  60;

GRAND FRKS AFB CLEAR     51  43  73 SE6       30.03S
GRAND FRKS NWS   N/A     48 N/A N/A E5          N/A
DEVILS LAKE    CLEAR     54  37  54 SE8       29.97S
6HR MIN TEMP:  55; 6HR MAX TEMP:  66;

FARGO          CLEAR     54  41  61 CALM      30.03R
WAHPETON ARPT  CLEAR     55  37  50 E5        30.04R
$$

 ***** WEATHER ACROSS CENTRAL AND WESTERN NORTH DAKOTA  *****

CITY           SKY/WX    TMP DP  RH WIND       PRES   REMARKS
BISMARCK       CLEAR     55  33  43 SE8       29.94F
6HR MIN TEMP:  55; 6HR MAX TEMP:  73; 6HR PCP: TRACE;

MINOT          CLEAR     62  37  39 SE9       29.90S
6HR MIN TEMP:  62; 6HR MAX TEMP:  72;

JAMESTOWN      CLEAR     56  38  50 SE7       29.99S
6HR MIN TEMP:  56; 6HR MAX TEMP:  69;

MINOT AFB      CLEAR     57  39  51 SE10      29.89S
GARRISON         N/A     60  41  49 SE8       29.91S
WILLISTON      CLEAR     71  40  32 SE6       29.82S
6HR MIN TEMP:  69; 6HR MAX TEMP:  78;

DICKINSON      CLEAR     60  41  49 E10       29.88S
6HR MIN TEMP:  59; 6HR MAX TEMP:  74;

HETTINGER      CLEAR     66  40  38 SE12      29.92S
6HR MIN TEMP:  66; 6HR MAX TEMP:  73;

$$

 *****  OTHER AIRPORT OBSERVATIONS IN OUR AREA  *****

CITY           SKY/WX    TMP DP  RH WIND       PRES   REMARKS
WALHALLA         N/A     48  41  76 SE6       30.03S
GRAFTON AIRPOR FAIR      48  39  71 SE6       30.04R
VALLEY CITY AR FAIR      55  41  58 SE7       30.02S
CANDO          FAIR      52  41  66 SE10      29.98S
CAVALIER APRT  FAIR      48  41  76 SE5       30.03S
GWINNER        CLEAR     55  39  54 E7        30.03S
ROLLA          FAIR      54  39  58 SE12      29.97F
 ***** THE ABOVE OBSERVATIONS ARE NON NWS ARE NOT QUALITY
       CONTROLLED AND MAY MIS-REPORT RAIN FOR SNOW...
$$

  *****  WEATHER ACROSS NORTHERN MINNESOTA  *****

CITY           SKY/WX    TMP DP  RH WIND       PRES   REMARKS
FLAG ISLAND    CLEAR     45  37  76 CALM      30.08R
WARROAD        CLEAR     45  39  81 E7        30.08S
ROSEAU         CLEAR     45  37  76 E5        30.07S
HALLOCK        CLEAR     48  37  66 E7        30.04S
THF RVR FALLS  CLEAR     48  37  66 CALM      30.06S
6HR MIN TEMP:  46; 6HR MAX TEMP:  55;

BAUDETTE       CLEAR     43  36  76 N3        30.09R
6HR MIN TEMP:  42; 6HR MAX TEMP:  50;

WASKISH        CLEAR     37  36  93 CALM      30.09R
CROOKSTON      CLEAR     52  39  62 E5        30.05S
STEPHEN NDAWN    N/A     50  39  66 E3          N/A
GREENBUSH NDAW   N/A     45  37  76 E3          N/A
$$
  *****  WEATHER ACROSS CENTRAL AND WEST MINNESOTA  *****

CITY           SKY/WX    TMP DP  RH WIND       PRES   REMARKS
FOSSTON        CLEAR     45  30  57 CALM      30.06S
BEMIDJI        CLEAR     41  36  83 NE5       30.07R
PARK RAPIDS    CLEAR     54  33  45 NE5       30.04R
6HR MIN TEMP:  53; 6HR MAX TEMP:  60;

ELBOW LAKE     FAIR      52  39  61 N3        30.04R
6HR MIN TEMP:  53; 6HR MAX TEMP:  62;

WADENA         CLEAR     50  36  57 CALM      30.04R
DETROIT LAKES  CLEAR     52  39  62 CALM      30.05S
MOORHEAD       CLEAR     54  41  62 NE3       30.05R
FERGUS FALLS   CLEAR     55  34  44 CALM      30.05R
MORRIS MN      CLEAR     54  37  54 N6        30.03S
STAPLES        CLEAR     48  34  57 CALM      30.04R
$$
  *****  WEATHER ELSEWHERE ACROSS MINNESOTA  *****

CITY           SKY/WX    TMP DP  RH WIND       PRES   REMARKS
DULUTH         CLOUDY    47  36  65 N8        30.06R
6HR MIN TEMP:  47; 6HR MAX TEMP:  50;

INTRNTL FALLS  CLOUDY    45  36  70 N3        30.09R
6HR MIN TEMP:  45; 6HR MAX TEMP:  48;

ELY            CLOUDY    45  36  70 CALM      30.08R
CLOQUET        CLOUDY    46  36  66 CALM      30.07R
WHEATON        CLEAR     54  37  54 NE5       30.05S
BRAINERD       CLEAR     48  38  68 NE3       30.05R
6HR MIN TEMP:  46; 6HR MAX TEMP:  56;

HIBBING        CLOUDY    47  36  65 NE5       30.08R
6HR MIN TEMP:  47; 6HR MAX TEMP:  49;

ALEXANDRIA     CLEAR     56  36  47 N5        30.05R
6HR MIN TEMP:  56; 6HR MAX TEMP:  63;

SAINT CLOUD    CLEAR     56  39  53 NE3       30.03R
6HR MIN TEMP:  56; 6HR MAX TEMP:  66;

MINNEAPOLIS    CLEAR     55  39  54 N9        30.03R
6HR MIN TEMP:  55; 6HR MAX TEMP:  64;

$$

  *****  WEATHER ACROSS SOUTH DAKOTA  *****

CITY           SKY/WX    TMP DP  RH WIND       PRES   REMARKS
SIOUX FALLS    CLEAR     59  37  44 W3        30.03S
6HR MIN TEMP:  59; 6HR MAX TEMP:  70;

BROOKINGS      NOT AVBL
WATERTOWN      CLEAR     59  36  42 CALM      30.03S
6HR MIN TEMP:  59; 6HR MAX TEMP:  70;

HURON          CLEAR     61  33  35 SE5       30.01S
6HR MIN TEMP:  61; 6HR MAX TEMP:  73;

SISSETON         N/A     49  39  68 E3        30.02S
ABERDEEN       CLEAR     55  34  45 SE6       30.01S
6HR MIN TEMP:  55; 6HR MAX TEMP:  73;

MITCHELL       CLEAR     59  36  42 SE6       30.03S
PIERRE         CLEAR     63  39  41 E8        29.94F
6HR MIN TEMP:  63; 6HR MAX TEMP:  76;

MOBRIDGE       CLEAR     60  38  43 SE12      29.93F
RAPID CITY     CLEAR     68  46  45 S12       29.91S
6HR MIN TEMP:  68; 6HR MAX TEMP:  77;

$$

  *****  SOME WEATHER IN NEARBY STATES *****

CITY           SKY/WX    TMP DP  RH WIND       PRES   REMARKS
GLASGOW MT     CLEAR     67  42  40 E5        29.76F
6HR MIN TEMP:  61; 6HR MAX TEMP:  74;

GREAT FALLS MT CLEAR     70  34  26 S7        29.75F
6HR MIN TEMP:  70; 6HR MAX TEMP:  78;

CHEYENNE WY    CLEAR     65  34  31 S7        30.09F
6HR MIN TEMP:  65; 6HR MAX TEMP:  72;

SCOTTSBLUFF NE CLEAR     70  41  34 SE7       29.98F
6HR MIN TEMP:  70; 6HR MAX TEMP:  81;

OMAHA NE       CLEAR     66  40  38 CALM      30.04S
6HR MIN TEMP:  66; 6HR MAX TEMP:  73;

DES MOINES IA  CLEAR     63  38  39 NW7       30.02R
6HR MIN TEMP:  63; 6HR MAX TEMP:  72;

DAVENPORT IA   CLEAR     55  40  56 NW6       29.97R
6HR MIN TEMP:  55; 6HR MAX TEMP:  68;

CHICAGO IL     MOCLDY    54  45  71 NE8       29.96R
6HR MIN TEMP:  54; 6HR MAX TEMP:  65;

EAU CLAIRE WI  CLOUDY    51  38  60 N3        30.03R
6HR MIN TEMP:  51; 6HR MAX TEMP:  59;

LA CROSSE WI   PTCLDY    56  40  55 N8        30.00R
6HR MIN TEMP:  55; 6HR MAX TEMP:  67;

$$

  *****  SOME NATIONAL WEATHER *****

CITY           SKY/WX    TMP DP  RH WIND       PRES   REMARKS
LA GUARDIA NY  PTCLDY    58  38  47 SW3       29.98R
6HR MIN TEMP:  57; 6HR MAX TEMP:  61;

RALEIGH NC     PTCLDY    56  49  77 CALM      30.01R
6HR MIN TEMP:  55; 6HR MAX TEMP:  71;

ATLANTA GA     MOCLDY    64  51  62 CALM      30.01R
6HR MIN TEMP:  64; 6HR MAX TEMP:  73;

NEW ORLEANS LA PTCLDY    70  54  56 N3        30.00R
6HR MIN TEMP:  69; 6HR MAX TEMP:  79;

OKLAHOMA CITY  PTCLDY    73  60  63 E5        30.01R
6HR MIN TEMP:  73; 6HR MAX TEMP:  83;

ALBUQUERQUE NM CLOUDY    60  51  72 NE5       30.15S
6HR MIN TEMP:  56; 6HR MAX TEMP:  73; 6HR PCP:  0.44;

SALT LAKE CITY PTCLDY    75  35  23 S6        29.91F
6HR MIN TEMP:  71; 6HR MAX TEMP:  79;

LOS ANGELES CA MOSUNNY   69  62  78 W14       29.87F


USA.gov is the U.S. government's official web portal to all federal, state and local government web resources and services.